JAS-2 (FO-29)

Last updated on Sun Dec 21 2025 00:03:15 GMT+0000 (Coordinated Universal Time)

1 24278U 96046B 25354.38852567 -.00000027 00000+0 87439-5 0 9996 2 24278 98.5458 222.4972 0349494 200.1071 158.6010 13.53262929448982
UTC large
Height (km)
Speed (km/s)
/
Latitude / Longitude
Inclination (degrees)
Orbital Period (minutes)
Azimuth
Elevation
Range (km)
Doppler Factor

Next 0 passes for location: London (51.5072 / 0.1276)

Sorry there are no passes over London.